Tracking 18852 objects as of 24-Nov-2017
HD Live streaming from Space Station
objects crossing your sky now

INTELSAT 512

Track INTELSAT 512 now!
INTELSAT 512 is classified as:


NORAD ID: 16101
Int'l Code: 1985-087A
Perigee: 36,063.9 km
Apogee: 36,180.6 km
Inclination: 15.5 °
Period: 1,452.9 minutes
Semi major axis: 42493 km
RCS: 6.4863 m2 (large)
Launch date: September 28, 1985
Source: International Telecommunications Satellite Organization (ITSO)
Launch site: AIR FORCE EASTERN TEST RANGE (AFETR)
aabbcc
Your satellite tracking list
Your tracking list is empty




NASA's NSSDC Master Catalog

Two Line Element Set (TLE):
1 16101U 85087A   17327.08934814 -.00000089 +00000-0 +00000-0 0  9992
2 16101 015.4561 010.1799 0013734 242.6151 119.2211 00.99111397099329
Source of the keplerian elements: AFSPC